STARLINK-5681, 55469

Orbit data source: Space-Track

STARLINK-5681, 55469 is a payload satellite owned by SpaceX/Seattle (US) in LEO that was launched on Thu, 02 Feb 2023 UTC via an FALCON 9 launch vehicle from the Air Force Eastern Test Range (AFETR). Payload-class satellites include a variety of spacecraft equipped with specific instruments for various scientific and technological missions. These include communications satellites like Starlink; space stations such as the ISS; scientific satellites like the Hubble; Earth observation satellites from companies like Planet Labs, Umbra, and HawkEye 360; GPS; miniature CubeSats for education and research; and military/defense satellites.

Loading next visibility...
Identifier
55469, 2023-015W
Orbit
LEO
Country
Flag of USUS
Related business
Manufacturer
SpaceX/Seattle
Mission
Operational Commercial Communications
Bus & Motor
STARLINK, Unknown motor
Mass
305 kg wet, ~290 kg dry
Launch date (UTC)
2023-02-02 (3 years ago)
Launch vehicle
FALCON 9
Launch site
Air Force Eastern Test Range (AFETR)
Object type
Payload
Rocket body
Debris
Shape & HBR
Box + 1 Pan, 10.1 m
Radar Cross Section
13.562 m², Large (>1 m²)

Expand to show TLE details & history
Last TLE update: 1 day ago

TLE from 1 day ago
0 STARLINK-5681
1 55469U 23015W   25302.31742403 -.00000066  00000-0  10154-4 0  9994
2 55469  43.0037 319.7051 0000563 253.5778 106.5003 15.02537204150993
Epoch: 2025-10-29T07:37Z
TLE epoch observation values (Epoch: 2025-10-29T07:37:05.436Z)
Latitude
0.00003°
Longitude
167.54019°
Altitude
558.965 km
Speed
7.584 km/s
True Right ascension
21h 18m 49s
True Declination
0° 00' 00"
Sunlit
Object was in daylight at epoch
Visualization orbit readout
Latitude
Unknown
Longitude
Unknown
Altitude
Unknown
Speed
Unknown
Apparent Right ascension
Unknown
Apparent Declination
Unknown
Sunlit
N/A
Visualization observer readout
Local Sidereal Time
11:53:26
Azimuth
Unknown
Elevation
Unknown
Doppler factor
Unknown
Orbital elements
Apogee altitude
561.39 km
Perigee altitude
560.608 km
Semi-major axis
6,939.136 km
Eccentricity
0.00006
Inclination
43.0037°
RAAN
319.7051°
Arg. of periapsis
253.5778°
True anomaly
106.50649°
Mean anomaly
106.5003°
Eccentric anomaly
106.50339°
Mean motion
3.75478 °/min
Orbital period
95.88 mins
BSTAR
0.000010154
Loading maneuver chart data...
Computing Atmospheric mass density...
Loading historical data...
Loading historical data...
Loading historical data...
Loading historical data...
Loading historical data...
Loading historical data...
Loading historical data...

Documentation

Showing up to 5 results
|